Starlink 5405

operational
NORAD ID: 54863 Int'l Des: 2022-177 Owner: SPXS Country: US Constellation: starlink
LEOCIRCULAR

Starlink 5405について

説明を読み込み中...

リアルタイム位置

3D地球を読み込み中...

次回通過

高度履歴

Altitude vs Time

uPlot chart will show altitude changes over time

軌道要素

1 54863U 22177AV 25258.30799523 .00000023 00000-0 16781-4 0 9997
2 54863 43.0042 353.2699 0001081 268.1797 91.8922 15.02530304150727
Epoch: Sep 15, 2025 • Age: 44 hours

現在のステータス

高度 559.7 km
速度 7.59 km/s
衛星直下点 26.49°N, 88.66°E
打ち上げ日 Dec 28, 2022
運用期間 2.7 years
タイプ internet

技術仕様

分類 Payload
質量 305.00 kg
乾燥質量 290.00 kg
総質量 305.00 kg
長さ 0.20 m
直径 2.80 m
スパン 9.00 m
形状 Box + pan
製造者 SPXS
バスタイプ Starlink
フェーズステータス In Orbit
所有者/国 SPXS/US

大規模コンステレーション

Loading constellations...